2017-010A

Last updated on Fri Feb 24 2017 00:15:03 GMT+0000 (Coordinated Universal Time)

1 42056U 17010A 17054.87140735 -.00003496 11052-4 00000+0 0 9993 2 42056 51.6403 243.2989 0014519 162.8610 197.2895 15.89213841 271
UTC large
Height (km)
Speed (km/s)
/
Latitude / Longitude
Inclination (degrees)
Orbital Period (minutes)
Azimuth
Elevation
Range (km)
Doppler Factor

Next 0 passes for location: London (51.5072 / 0.1276)

Sorry there are no passes over London.